Date String (YYYY-MM-DD hh:mm:ss) UTC,Instrument flags,Ambient pressure (hPa),Sample flow (lpm),Bypass flow (lpm),Sample temperature (°C),Ambient temperature (°C),ASC tube jacket temperature (°C),LED temperature (°C),Box temperature (°C),Sample RH (%),Span deviation,Mass concentration (μg/m³),Mass concentration (μg/m³),Mass concentration (μg/m³)
DateTimeUTC,F1_M11,P_M11,Q1_M11,Q2_M11,T1_M11,T2_M11,T3_M11,T4_M11,T5_M11,U1_M11,ZSPAN_M11,X0_M11,X2_M11,X1_M11
2022-01-10 17:00:00,,0839.8,5.00,0.00,24.1,23.3,00.0,32.9,26.0,06.3,0000.0,0003.78,0000.57,0000.34
2022-01-10 17:01:00,,0839.8,5.00,0.00,24.1,23.4,00.0,32.9,26.0,06.0,0000.0,0003.84,0000.59,0000.35
2022-01-10 17:02:00,,0839.8,5.01,0.00,24.1,23.4,00.0,32.9,26.0,06.0,0000.0,0003.30,0000.58,0000.35
2022-01-10 17:03:00,,0839.8,4.98,0.00,24.1,23.4,00.0,33.0,26.0,06.1,0000.0,0002.56,0000.58,0000.35
2022-01-10 17:04:00,,0839.8,5.01,0.00,24.1,23.4,00.0,33.0,26.0,05.9,0000.0,0002.48,0000.58,0000.36
2022-01-10 17:05:00,,0839.8,5.00,0.00,24.1,23.4,00.0,33.0,26.0,05.8,0000.0,0001.87,0000.58,0000.37
2022-01-10 17:06:00,,0839.8,4.99,0.00,24.2,23.4,00.0,33.0,26.0,05.9,0000.0,0001.25,0000.57,0000.38
2022-01-10 17:07:00,,0839.8,5.00,0.00,24.2,23.4,00.0,33.0,26.0,05.9,0000.0,0001.29,0000.59,0000.38
2022-01-10 17:08:00,,0839.8,4.99,0.00,24.2,23.4,00.0,33.0,26.0,05.8,0000.0,0001.30,0000.60,0000.37
2022-01-10 17:09:00,,0839.8,5.01,0.00,24.2,23.4,00.0,33.0,26.0,05.8,0000.0,0001.07,0000.57,0000.37
2022-01-10 17:10:00,,0839.8,4.99,0.00,24.2,23.4,00.0,33.0,26.1,05.9,0000.0,0001.00,0000.55,0000.37
2022-01-10 17:11:00,,0839.8,5.02,0.00,24.2,23.4,00.0,33.0,26.1,06.1,0000.0,0001.02,0000.55,0000.36
2022-01-10 17:12:00,,0839.8,4.99,0.00,24.2,23.4,00.0,33.1,26.1,06.0,0000.0,0001.54,0000.56,0000.36
2022-01-10 17:13:00,,0839.8,5.00,0.00,24.2,23.5,00.0,33.1,26.1,05.9,0000.0,0001.76,0000.57,0000.35
2022-01-10 17:14:00,,0839.8,5.01,0.00,24.2,23.5,00.0,33.1,26.1,06.1,0000.0,0001.76,0000.57,0000.35
2022-01-10 17:15:00,,0839.8,5.00,0.00,24.2,23.5,00.0,33.1,26.1,06.1,0000.0,0001.70,0000.55,0000.35
2022-01-10 17:16:00,,0839.8,5.00,0.00,24.3,23.5,00.0,33.1,26.1,06.0,0000.0,0001.76,0000.56,0000.34
2022-01-10 17:17:00,,0839.8,5.01,0.00,24.3,23.5,00.0,33.1,26.2,05.8,0000.0,0001.80,0000.57,0000.33
2022-01-10 17:18:00,,0839.8,5.01,0.00,24.3,23.5,00.0,33.1,26.2,05.8,0000.0,0001.74,0000.55,0000.33
2022-01-10 17:19:00,,0839.8,4.98,0.00,24.3,23.6,00.0,33.2,26.2,05.7,0000.0,0001.67,0000.52,0000.33
2022-01-10 17:20:00,,0839.8,5.00,0.00,24.3,23.6,00.0,33.2,26.2,05.7,0000.0,0001.81,0000.54,0000.33
2022-01-10 17:21:00,,0839.8,4.99,0.00,24.3,23.6,00.0,33.2,26.2,05.7,0000.0,0001.81,0000.54,0000.33
2022-01-10 17:22:00,,0839.7,5.01,0.00,24.3,23.6,00.0,33.2,26.2,05.8,0000.0,0001.80,0000.55,0000.32
2022-01-10 17:23:00,,0839.8,5.00,0.00,24.3,23.6,00.0,33.2,26.2,05.8,0000.0,0001.12,0000.51,0000.32
2022-01-10 17:24:00,,0839.7,5.01,0.00,24.3,23.6,00.0,33.2,26.2,05.8,0000.0,0000.98,0000.50,0000.32
2022-01-10 17:25:00,,0839.7,4.99,0.00,24.3,23.6,00.0,33.2,26.2,05.7,0000.0,0000.98,0000.50,0000.32
2022-01-10 17:26:00,,0839.7,5.00,0.00,24.3,23.6,00.0,33.2,26.2,05.9,0000.0,0000.99,0000.50,0000.33
2022-01-10 17:27:00,,0839.7,5.00,0.00,24.3,23.6,00.0,33.2,26.2,05.8,0000.0,0001.03,0000.51,0000.33
2022-01-10 17:28:00,,0839.7,4.99,0.00,24.4,23.6,00.0,33.3,26.2,05.8,0000.0,0001.08,0000.55,0000.34
2022-01-10 17:29:00,,0839.7,5.00,0.00,24.4,23.6,00.0,33.3,26.3,06.0,0000.0,0001.12,0000.59,0000.35
2022-01-10 17:30:00,,0839.7,5.01,0.00,24.4,23.6,00.0,33.3,26.3,05.9,0000.0,0001.29,0000.62,0000.37
2022-01-10 17:31:00,,0839.7,4.99,0.00,24.4,23.6,00.0,33.3,26.3,05.8,0000.0,0001.19,0000.63,0000.37
2022-01-10 17:32:00,,0839.7,5.01,0.00,24.4,23.6,00.0,33.3,26.3,05.6,0000.0,0001.20,0000.64,0000.38
2022-01-10 17:33:00,,0839.7,4.99,0.00,24.4,23.6,00.0,33.3,26.3,05.8,0000.0,0001.23,0000.64,0000.38
2022-01-10 17:34:00,,0839.7,5.01,0.00,24.4,23.6,00.0,33.3,26.3,05.8,0000.0,0001.30,0000.65,0000.39
2022-01-10 17:35:00,,0839.7,5.01,0.00,24.4,23.6,00.0,33.3,26.3,05.7,0000.0,0001.69,0000.65,0000.39
2022-01-10 17:36:00,,0839.6,5.00,0.00,24.4,23.6,00.0,33.3,26.3,05.7,0000.0,0001.95,0000.65,0000.39
2022-01-10 17:37:00,,0839.6,4.99,0.00,24.4,23.6,00.0,33.4,26.3,05.8,0000.0,0001.99,0000.68,0000.38
2022-01-10 17:38:00,,0839.6,5.01,0.00,24.4,23.7,00.0,33.4,26.3,06.1,0000.0,0001.94,0000.67,0000.39
2022-01-10 17:39:00,,0839.6,4.99,0.00,24.4,23.7,00.0,33.4,26.3,06.3,0000.0,0002.02,0000.65,0000.39
2022-01-10 17:40:00,,0839.7,5.00,0.00,24.4,23.7,00.0,33.4,26.3,06.0,0000.0,0001.99,0000.64,0000.39
2022-01-10 17:41:00,,0839.7,4.99,0.00,24.5,23.7,00.0,33.4,26.4,05.9,0000.0,0001.79,0000.60,0000.39
2022-01-10 17:42:00,,0839.7,5.02,0.00,24.5,23.8,00.0,33.4,26.4,06.0,0000.0,0001.73,0000.58,0000.39
2022-01-10 17:43:00,,0839.7,4.99,0.00,24.5,23.8,00.0,33.4,26.4,05.8,0000.0,0001.71,0000.57,0000.39
2022-01-10 17:44:00,,0839.7,5.01,0.00,24.5,23.8,00.0,33.4,26.4,05.8,0000.0,0001.74,0000.58,0000.38
2022-01-10 17:45:00,,0839.6,5.00,0.00,24.5,23.8,00.0,33.4,26.4,05.7,0000.0,0001.74,0000.58,0000.38
2022-01-10 17:46:00,,0839.6,4.99,0.00,24.6,23.9,00.0,33.4,26.4,05.7,0000.0,0001.58,0000.62,0000.37
2022-01-10 17:47:00,,0839.6,5.00,0.00,24.6,23.9,00.0,33.4,26.5,05.9,0000.0,0001.32,0000.62,0000.37
2022-01-10 17:48:00,,0839.6,5.00,0.00,24.6,23.9,00.0,33.5,26.5,05.8,0000.0,0001.26,0000.58,0000.37
2022-01-10 17:49:00,,0839.6,5.00,0.00,24.6,23.9,00.0,33.5,26.6,05.7,0000.0,0001.23,0000.57,0000.36
2022-01-10 17:50:00,,0839.5,4.99,0.00,24.7,24.0,00.0,33.5,26.6,05.9,0000.0,0001.05,0000.53,0000.35
2022-01-10 17:51:00,,0839.5,4.99,0.00,24.7,24.0,00.0,33.5,26.6,05.7,0000.0,0000.98,0000.51,0000.34
2022-01-10 17:52:00,,0839.5,5.02,0.00,24.7,24.0,00.0,33.5,26.6,05.6,0000.0,0001.03,0000.52,0000.34
2022-01-10 17:53:00,,0839.5,5.00,0.00,24.7,24.0,00.0,33.5,26.6,05.8,0000.0,0001.04,0000.53,0000.33
2022-01-10 17:54:00,,0839.5,5.01,0.00,24.8,24.1,00.0,33.6,26.7,05.8,0000.0,0001.07,0000.54,0000.32
2022-01-10 17:55:00,,0839.4,5.01,0.00,24.8,24.1,00.0,33.6,26.7,06.2,0000.0,0001.05,0000.53,0000.33
2022-01-10 17:56:00,,0839.4,4.99,0.00,24.8,24.1,00.0,33.6,26.7,06.3,0000.0,0000.99,0000.51,0000.33
2022-01-10 17:57:00,,0839.4,5.00,0.00,24.8,24.1,00.0,33.6,26.7,05.8,0000.0,0000.74,0000.47,0000.33
2022-01-10 17:58:00,,0839.3,5.01,0.00,24.8,24.1,00.0,33.6,26.7,05.9,0000.0,0000.72,0000.47,0000.34
2022-01-10 17:59:00,,0839.4,4.99,0.00,24.9,24.1,00.0,33.6,26.7,06.0,0000.0,0000.73,0000.47,0000.34
